Time,TemperatureF,DewpointF,PressureIn,WindDirection,WindDirectionDegrees,WindSpeedMPH,WindSpeedGustMPH,Humidity,HourlyPrecipIn,Conditions,Clouds,dailyrainin,SoftwareType,DateUTC
2013-12-07 00:00:00,36.3,35.0,30.15,NE,43,4.0,4.0,95,0.15,,---,0.88,VWS V14.01,2013-12-07 05:00:00,
2013-12-07 00:01:00,36.3,35.0,30.15,NNE,32,4.0,4.0,95,0.15,,---,0.88,VWS V14.01,2013-12-07 05:01:00,
2013-12-07 00:02:00,36.2,34.9,30.14,NE,36,3.0,3.0,95,0.11,,---,0.00,VWS V14.01,2013-12-07 05:02:00,
2013-12-07 00:07:00,36.2,34.9,30.15,NE,51,0.0,4.0,95,0.12,,---,0.01,VWS V14.01,2013-12-07 05:07:00,
2013-12-07 00:12:00,36.0,34.7,30.15,NE,38,4.0,4.0,95,0.12,,---,0.01,VWS V14.01,2013-12-07 05:12:00,
2013-12-07 00:17:00,35.9,34.6,30.14,NE,43,3.0,6.0,95,0.12,,---,0.01,VWS V14.01,2013-12-07 05:17:00,
2013-12-07 00:22:00,35.6,34.0,30.15,NE,43,4.0,6.0,94,0.12,,---,0.01,VWS V14.01,2013-12-07 05:22:00,
2013-12-07 00:27:00,35.4,33.6,30.15,NE,44,5.0,8.0,93,0.12,,---,0.01,VWS V14.01,2013-12-07 05:27:00,
2013-12-07 00:32:00,35.5,33.7,30.15,NE,49,3.0,4.0,93,0.07,,---,0.02,VWS V14.01,2013-12-07 05:32:00,
2013-12-07 00:37:00,35.3,33.5,30.13,NNE,28,5.0,7.0,93,0.07,,---,0.02,VWS V14.01,2013-12-07 05:37:00,
2013-12-07 00:42:00,35.2,33.4,30.12,NE,39,4.0,7.0,93,0.07,,---,0.02,VWS V14.01,2013-12-07 05:42:00,
2013-12-07 00:47:00,35.1,33.5,30.11,ENE,58,1.0,7.0,94,0.07,,---,0.02,VWS V14.01,2013-12-07 05:47:00,
2013-12-07 00:52:00,35.1,33.5,30.12,North,1,1.0,7.0,94,0.07,,---,0.02,VWS V14.01,2013-12-07 05:52:00,
2013-12-07 00:57:00,34.9,33.3,30.12,NNE,26,1.0,7.0,94,0.07,,---,0.02,VWS V14.01,2013-12-07 05:57:00,
2013-12-07 01:02:00,34.8,33.2,30.12,NE,43,1.0,1.0,94,0.02,,---,0.02,VWS V14.01,2013-12-07 06:02:00,
2013-12-07 01:07:00,34.8,33.2,30.12,NNE,23,4.0,5.0,94,0.02,,---,0.02,VWS V14.01,2013-12-07 06:07:00,
2013-12-07 01:12:00,34.8,33.2,30.12,NE,46,3.0,5.0,94,0.02,,---,0.02,VWS V14.01,2013-12-07 06:12:00,
2013-12-07 01:17:00,34.7,32.9,30.12,NNE,23,4.0,7.0,93,0.02,,---,0.02,VWS V14.01,2013-12-07 06:17:00,
2013-12-07 01:22:00,34.7,33.2,30.13,NE,41,2.0,7.0,94,0.02,,---,0.02,VWS V14.01,2013-12-07 06:22:00,
2013-12-07 01:27:00,34.6,32.8,30.12,NE,41,5.0,7.0,93,0.02,,---,0.02,VWS V14.01,2013-12-07 06:27:00,
2013-12-07 01:32:00,34.5,32.7,30.12,NE,44,5.0,5.0,93,0.00,,---,0.02,VWS V14.01,2013-12-07 06:32:00,
2013-12-07 01:37:00,34.5,32.7,30.12,NNE,26,5.0,6.0,93,0.00,,---,0.02,VWS V14.01,2013-12-07 06:37:00,
2013-12-07 01:42:00,34.5,32.7,30.11,NNE,30,1.0,7.0,93,0.00,,---,0.02,VWS V14.01,2013-12-07 06:42:00,
2013-12-07 01:47:00,34.5,32.7,30.11,NE,36,3.0,7.0,93,0.00,,---,0.02,VWS V14.01,2013-12-07 06:47:00,
2013-12-07 01:52:00,34.3,32.5,30.14,NNE,32,1.0,7.0,93,0.00,,---,0.02,VWS V14.01,2013-12-07 06:52:00,
2013-12-07 01:57:00,34.4,32.6,30.16,NW,316,1.0,7.0,93,0.00,,---,0.02,VWS V14.01,2013-12-07 06:57:00,
2013-12-07 02:02:00,34.4,32.6,30.16,ENE,57,3.0,3.0,93,0.00,,---,0.02,VWS V14.01,2013-12-07 07:02:00,
2013-12-07 02:07:00,34.4,32.6,30.17,NE,53,0.0,3.0,93,0.00,,---,0.02,VWS V14.01,2013-12-07 07:07:00,
2013-12-07 02:12:00,34.5,32.7,30.18,NNW,343,2.0,3.0,93,0.00,,---,0.02,VWS V14.01,2013-12-07 07:12:00,
2013-12-07 02:17:00,34.5,32.7,30.18,NE,42,4.0,5.0,93,0.00,,---,0.02,VWS V14.01,2013-12-07 07:17:00,
2013-12-07 02:22:00,34.5,32.4,30.17,NE,44,3.0,7.0,92,0.00,,---,0.02,VWS V14.01,2013-12-07 07:22:00,
2013-12-07 02:27:00,34.4,32.6,30.19,NW,309,3.0,7.0,93,0.00,,---,0.02,VWS V14.01,2013-12-07 07:27:00,
2013-12-07 02:32:00,34.4,32.6,30.18,NNE,18,0.0,0.0,93,0.00,,---,0.02,VWS V14.01,2013-12-07 07:32:00,
2013-12-07 02:37:00,34.3,32.8,30.19,NW,309,1.0,3.0,94,0.01,,---,0.03,VWS V14.01,2013-12-07 07:37:00,
2013-12-07 02:42:00,34.1,32.6,30.19,WNW,297,3.0,6.0,94,0.01,,---,0.03,VWS V14.01,2013-12-07 07:42:00,
2013-12-07 02:46:00,34.1,32.6,30.20,North,355,1.0,6.0,94,0.01,,---,0.03,VWS V14.01,2013-12-07 07:46:00,
2013-12-07 02:51:00,34.0,32.5,30.19,ENE,58,1.0,6.0,94,0.01,,---,0.03,VWS V14.01,2013-12-07 07:51:00,
2013-12-07 02:56:00,34.0,32.7,30.19,NNE,19,1.0,6.0,95,0.01,,---,0.03,VWS V14.01,2013-12-07 07:56:00,
2013-12-07 03:01:00,34.1,32.8,30.19,NNE,20,0.0,0.0,95,0.01,,---,0.03,VWS V14.01,2013-12-07 08:01:00,
2013-12-07 03:06:00,34.1,32.8,30.19,NE,43,0.0,2.0,95,0.01,,---,0.03,VWS V14.01,2013-12-07 08:06:00,
2013-12-07 03:11:00,34.1,32.8,30.19,NNW,340,0.0,2.0,95,0.01,,---,0.03,VWS V14.01,2013-12-07 08:11:00,
2013-12-07 03:16:00,34.0,32.7,30.19,NNW,340,0.0,2.0,95,0.01,,---,0.03,VWS V14.01,2013-12-07 08:16:00,
2013-12-07 03:21:00,34.0,32.7,30.19,North,350,0.0,2.0,95,0.01,,---,0.03,VWS V14.01,2013-12-07 08:21:00,
2013-12-07 03:26:00,34.0,32.7,30.19,North,350,0.0,2.0,95,0.01,,---,0.03,VWS V14.01,2013-12-07 08:26:00,
2013-12-07 03:31:00,34.0,32.7,30.18,NE,34,0.0,1.0,95,0.01,,---,0.03,VWS V14.01,2013-12-07 08:31:00,
2013-12-07 03:36:00,34.1,33.1,30.18,NE,34,0.0,1.0,96,0.02,,---,0.04,VWS V14.01,2013-12-07 08:36:00,
2013-12-07 03:41:00,34.1,33.1,30.18,NE,34,0.0,1.0,96,0.02,,---,0.04,VWS V14.01,2013-12-07 08:41:00,
2013-12-07 03:46:00,34.1,33.1,30.18,East,88,0.0,1.0,96,0.02,,---,0.04,VWS V14.01,2013-12-07 08:46:00,
2013-12-07 03:51:00,34.1,33.1,30.18,NE,42,0.0,2.0,96,0.02,,---,0.04,VWS V14.01,2013-12-07 08:51:00,
2013-12-07 03:56:00,34.0,33.0,30.18,NNE,15,0.0,2.0,96,0.02,,---,0.04,VWS V14.01,2013-12-07 08:56:00,
2013-12-07 04:01:00,34.0,33.0,30.18,NW,316,1.0,1.0,96,0.01,,---,0.04,VWS V14.01,2013-12-07 09:01:00,
2013-12-07 04:06:00,34.0,33.0,30.18,NW,316,0.0,1.0,96,0.01,,---,0.04,VWS V14.01,2013-12-07 09:06:00,
2013-12-07 04:11:00,34.0,33.0,30.18,NW,316,0.0,1.0,96,0.01,,---,0.04,VWS V14.01,2013-12-07 09:11:00,
2013-12-07 04:16:00,34.0,33.0,30.18,NNE,29,0.0,3.0,96,0.01,,---,0.04,VWS V14.01,2013-12-07 09:16:00,
2013-12-07 04:21:00,34.0,32.7,30.19,NNE,32,3.0,4.0,95,0.01,,---,0.04,VWS V14.01,2013-12-07 09:21:00,
2013-12-07 04:26:00,34.1,32.8,30.19,NW,322,0.0,4.0,95,0.01,,---,0.04,VWS V14.01,2013-12-07 09:26:00,
2013-12-07 04:31:00,34.1,32.8,30.19,NE,53,1.0,1.0,95,0.01,,---,0.04,VWS V14.01,2013-12-07 09:31:00,
2013-12-07 04:36:00,34.1,32.6,30.19,NE,41,0.0,3.0,94,0.01,,---,0.04,VWS V14.01,2013-12-07 09:36:00,
2013-12-07 04:41:00,34.1,32.6,30.20,NNW,340,0.0,3.0,94,0.01,,---,0.04,VWS V14.01,2013-12-07 09:41:00,
2013-12-07 04:46:00,34.1,32.6,30.21,NNE,23,1.0,3.0,94,0.01,,---,0.04,VWS V14.01,2013-12-07 09:46:00,
2013-12-07 04:51:00,34.1,32.6,30.21,ESE,118,0.0,3.0,94,0.01,,---,0.04,VWS V14.01,2013-12-07 09:51:00,
2013-12-07 04:56:00,34.1,32.3,30.21,West,269,0.0,3.0,93,0.01,,---,0.04,VWS V14.01,2013-12-07 09:56:00,
2013-12-07 05:01:00,34.1,32.3,30.21,WNW,298,0.0,1.0,93,0.00,,---,0.04,VWS V14.01,2013-12-07 10:01:00,
2013-12-07 05:06:00,34.1,32.3,30.21,NE,38,1.0,3.0,93,0.00,,---,0.04,VWS V14.01,2013-12-07 10:06:00,
2013-12-07 05:11:00,34.1,32.0,30.21,NNW,343,1.0,4.0,92,0.00,,---,0.04,VWS V14.01,2013-12-07 10:11:00,
2013-12-07 05:16:00,34.0,31.9,30.21,NE,46,3.0,4.0,92,0.00,,---,0.04,VWS V14.01,2013-12-07 10:16:00,
2013-12-07 05:21:00,34.0,31.9,30.22,NW,322,2.0,4.0,92,0.00,,---,0.04,VWS V14.01,2013-12-07 10:21:00,
2013-12-07 05:26:00,34.0,31.6,30.22,NNW,340,3.0,6.0,91,0.00,,---,0.04,VWS V14.01,2013-12-07 10:26:00,
2013-12-07 05:31:00,34.1,31.8,30.22,NNW,342,2.0,3.0,91,0.00,,---,0.04,VWS V14.01,2013-12-07 10:31:00,
2013-12-07 05:36:00,34.0,31.6,30.21,NE,44,4.0,5.0,91,0.00,,---,0.04,VWS V14.01,2013-12-07 10:36:00,
2013-12-07 05:41:00,34.0,31.6,30.21,NNW,335,3.0,5.0,91,0.00,,---,0.04,VWS V14.01,2013-12-07 10:41:00,
2013-12-07 05:46:00,34.0,31.6,30.21,NNW,343,3.0,5.0,91,0.00,,---,0.04,VWS V14.01,2013-12-07 10:46:00,
2013-12-07 05:51:00,34.0,31.4,30.21,WNW,291,3.0,6.0,90,0.00,,---,0.04,VWS V14.01,2013-12-07 10:51:00,
2013-12-07 05:56:00,34.0,31.4,30.22,North,355,2.0,6.0,90,0.00,,---,0.04,VWS V14.01,2013-12-07 10:56:00,
2013-12-07 06:01:00,33.9,31.3,30.22,NW,322,1.0,1.0,90,0.00,,---,0.04,VWS V14.01,2013-12-07 11:01:00,
2013-12-07 06:06:00,33.9,31.0,30.23,NW,310,2.0,5.0,89,0.00,,---,0.04,VWS V14.01,2013-12-07 11:06:00,
2013-12-07 06:11:00,33.9,31.0,30.23,North,349,3.0,5.0,89,0.00,,---,0.04,VWS V14.01,2013-12-07 11:11:00,
2013-12-07 06:16:00,33.9,31.0,30.24,NW,311,4.0,6.0,89,0.00,,---,0.04,VWS V14.01,2013-12-07 11:16:00,
2013-12-07 06:21:00,33.8,30.9,30.24,NW,312,2.0,6.0,89,0.00,,---,0.04,VWS V14.01,2013-12-07 11:21:00,
2013-12-07 06:26:00,33.8,30.6,30.24,NW,326,3.0,6.0,88,0.00,,---,0.04,VWS V14.01,2013-12-07 11:26:00,
2013-12-07 06:31:00,33.6,30.4,30.24,NW,325,5.0,7.0,88,0.00,,---,0.04,VWS V14.01,2013-12-07 11:31:00,
2013-12-07 06:36:00,33.7,30.5,30.25,NW,312,4.0,7.0,88,0.00,,---,0.04,VWS V14.01,2013-12-07 11:36:00,
2013-12-07 06:41:00,33.7,30.5,30.25,NW,307,3.0,7.0,88,0.00,,---,0.04,VWS V14.01,2013-12-07 11:41:00,
2013-12-07 06:46:00,33.6,30.4,30.25,WNW,303,4.0,8.0,88,0.00,,---,0.04,VWS V14.01,2013-12-07 11:46:00,
2013-12-07 06:51:00,33.7,30.0,30.25,NNW,345,4.0,8.0,86,0.00,,---,0.04,VWS V14.01,2013-12-07 11:51:00,
2013-12-07 06:56:00,33.7,30.2,30.25,NW,314,1.0,8.0,87,0.00,,---,0.04,VWS V14.01,2013-12-07 11:56:00,
2013-12-07 07:01:00,33.6,30.1,30.25,WNW,292,2.0,3.0,87,0.00,,---,0.04,VWS V14.01,2013-12-07 12:01:00,
2013-12-07 07:06:00,33.6,30.1,30.25,NW,323,4.0,5.0,87,0.00,,---,0.04,VWS V14.01,2013-12-07 12:06:00,
2013-12-07 07:11:00,33.6,30.1,30.25,WNW,300,1.0,5.0,87,0.00,,---,0.04,VWS V14.01,2013-12-07 12:11:00,
2013-12-07 07:16:00,33.5,30.0,30.26,NW,322,2.0,5.0,87,0.00,,---,0.04,VWS V14.01,2013-12-07 12:16:00,
2013-12-07 07:21:00,33.5,30.3,30.26,NW,309,2.0,5.0,88,0.00,,---,0.04,VWS V14.01,2013-12-07 12:21:00,
2013-12-07 07:26:00,33.4,30.2,30.26,NW,326,3.0,5.0,88,0.00,,---,0.04,VWS V14.01,2013-12-07 12:26:00,
2013-12-07 07:31:00,33.4,30.2,30.27,WNW,298,5.0,5.0,88,0.00,,---,0.04,VWS V14.01,2013-12-07 12:31:00,
2013-12-07 07:36:00,33.5,30.0,30.27,NW,325,3.0,7.0,87,0.00,,---,0.04,VWS V14.01,2013-12-07 12:36:00,
2013-12-07 07:41:00,33.5,30.0,30.27,NW,315,5.0,7.0,87,0.00,,---,0.04,VWS V14.01,2013-12-07 12:41:00,
2013-12-07 07:46:00,33.6,30.1,30.28,NNW,337,3.0,7.0,87,0.00,,---,0.04,VWS V14.01,2013-12-07 12:46:00,
2013-12-07 07:51:00,33.6,30.1,30.28,West,270,4.0,7.0,87,0.00,,---,0.04,VWS V14.01,2013-12-07 12:51:00,
2013-12-07 07:56:00,33.7,30.0,30.28,NW,315,4.0,7.0,86,0.00,,---,0.04,VWS V14.01,2013-12-07 12:56:00,
2013-12-07 08:01:00,33.7,30.2,30.28,NW,312,2.0,2.0,87,0.00,,---,0.04,VWS V14.01,2013-12-07 13:01:00,
2013-12-07 08:06:00,33.5,30.0,30.29,NW,325,2.0,4.0,87,0.00,,---,0.04,VWS V14.01,2013-12-07 13:06:00,
2013-12-07 08:11:00,33.6,29.9,30.29,WNW,297,1.0,4.0,86,0.00,,---,0.04,VWS V14.01,2013-12-07 13:11:00,
2013-12-07 08:16:00,33.5,30.0,30.29,North,360,2.0,4.0,87,0.00,,---,0.04,VWS V14.01,2013-12-07 13:16:00,
2013-12-07 08:21:00,33.6,29.9,30.30,NW,311,0.0,4.0,86,0.00,,---,0.04,VWS V14.01,2013-12-07 13:21:00,
2013-12-07 08:26:00,33.7,29.7,30.30,WNW,291,1.0,4.0,85,0.00,,---,0.04,VWS V14.01,2013-12-07 13:26:00,
2013-12-07 08:31:00,33.8,29.8,30.30,WNW,301,0.0,0.0,85,0.00,,---,0.04,VWS V14.01,2013-12-07 13:31:00,
2013-12-07 08:36:00,33.9,30.2,30.30,WNW,300,0.0,0.0,86,0.00,,---,0.04,VWS V14.01,2013-12-07 13:36:00,
2013-12-07 08:41:00,34.0,30.3,30.31,West,265,1.0,2.0,86,0.00,,---,0.04,VWS V14.01,2013-12-07 13:41:00,
2013-12-07 08:46:00,34.1,30.4,30.30,West,278,3.0,3.0,86,0.00,,---,0.04,VWS V14.01,2013-12-07 13:46:00,
2013-12-07 08:51:00,34.3,29.7,30.31,NW,318,1.0,3.0,83,0.00,,---,0.04,VWS V14.01,2013-12-07 13:51:00,
2013-12-07 08:56:00,34.5,29.6,30.31,NW,320,2.0,5.0,82,0.00,,---,0.04,VWS V14.01,2013-12-07 13:56:00,
2013-12-07 09:01:00,34.6,30.0,30.32,West,281,1.0,2.0,83,0.00,,---,0.04,VWS V14.01,2013-12-07 14:01:00,
2013-12-07 09:06:00,34.7,29.8,30.32,WNW,303,3.0,4.0,82,0.00,,---,0.04,VWS V14.01,2013-12-07 14:06:00,
2013-12-07 09:11:00,34.9,30.0,30.32,West,280,3.0,5.0,82,0.00,,---,0.04,VWS V14.01,2013-12-07 14:11:00,
2013-12-07 09:16:00,35.0,29.5,30.32,NNW,337,0.0,5.0,80,0.00,,---,0.04,VWS V14.01,2013-12-07 14:16:00,
2013-12-07 09:21:00,35.1,29.9,30.32,NW,315,1.0,5.0,81,0.00,,---,0.04,VWS V14.01,2013-12-07 14:21:00,
2013-12-07 09:26:00,35.3,30.7,30.32,WNW,297,4.0,5.0,83,0.00,,---,0.04,VWS V14.01,2013-12-07 14:26:00,
2013-12-07 09:31:00,35.3,29.8,30.32,NW,322,2.0,3.0,80,0.00,,---,0.04,VWS V14.01,2013-12-07 14:31:00,
2013-12-07 09:36:00,35.4,29.9,30.33,NE,34,4.0,5.0,80,0.00,,---,0.04,VWS V14.01,2013-12-07 14:36:00,
2013-12-07 09:41:00,35.4,29.9,30.33,West,262,5.0,7.0,80,0.00,,---,0.04,VWS V14.01,2013-12-07 14:41:00,
2013-12-07 09:46:00,35.5,30.0,30.33,NNE,26,1.0,7.0,80,0.00,,---,0.04,VWS V14.01,2013-12-07 14:46:00,
2013-12-07 09:51:00,35.6,30.0,30.33,North,5,7.0,7.0,80,0.00,,---,0.04,VWS V14.01,2013-12-07 14:51:00,
2013-12-07 09:56:00,35.6,29.4,30.33,NE,46,3.0,14.0,78,0.00,,---,0.04,VWS V14.01,2013-12-07 14:56:00,
2013-12-07 10:01:00,35.7,29.5,30.33,NNE,23,5.0,14.0,78,0.00,,---,0.04,VWS V14.01,2013-12-07 15:01:00,
2013-12-07 10:06:00,35.8,29.3,30.33,NNE,27,8.0,12.0,77,0.00,,---,0.04,VWS V14.01,2013-12-07 15:06:00,
2013-12-07 10:11:00,35.8,29.0,30.34,NNW,344,4.0,12.0,76,0.00,,---,0.04,VWS V14.01,2013-12-07 15:11:00,
2013-12-07 10:16:00,35.9,29.1,30.34,NE,56,5.0,12.0,76,0.00,,---,0.04,VWS V14.01,2013-12-07 15:16:00,
2013-12-07 10:21:00,35.8,29.0,30.34,NE,55,6.0,12.0,76,0.00,,---,0.04,VWS V14.01,2013-12-07 15:21:00,
2013-12-07 10:26:00,35.8,29.3,30.34,SSE,154,0.0,12.0,77,0.00,,---,0.04,VWS V14.01,2013-12-07 15:26:00,
2013-12-07 10:31:00,35.8,29.0,30.34,NNE,28,6.0,6.0,76,0.00,,---,0.04,VWS V14.01,2013-12-07 15:31:00,
2013-12-07 10:36:00,35.7,28.6,30.34,North,356,2.0,8.0,75,0.00,,---,0.04,VWS V14.01,2013-12-07 15:36:00,
2013-12-07 10:41:00,35.8,29.0,30.34,NW,321,4.0,8.0,76,0.00,,---,0.04,VWS V14.01,2013-12-07 15:41:00,
2013-12-07 10:46:00,35.7,28.2,30.34,NE,53,4.0,9.0,74,0.00,,---,0.04,VWS V14.01,2013-12-07 15:46:00,
2013-12-07 10:51:00,35.5,27.7,30.34,NW,314,3.0,10.0,73,0.00,,---,0.04,VWS V14.01,2013-12-07 15:51:00,
2013-12-07 10:56:00,35.6,28.5,30.33,NNE,27,3.0,10.0,75,0.00,,---,0.04,VWS V14.01,2013-12-07 15:56:00,
2013-12-07 11:01:00,35.5,28.0,30.34,NE,44,4.0,10.0,74,0.00,,---,0.04,VWS V14.01,2013-12-07 16:01:00,
2013-12-07 11:06:00,35.5,28.4,30.34,NNE,21,4.0,10.0,75,0.00,,---,0.04,VWS V14.01,2013-12-07 16:06:00,
2013-12-07 11:11:00,35.4,28.3,30.34,NE,37,4.0,10.0,75,0.00,,---,0.04,VWS V14.01,2013-12-07 16:11:00,
2013-12-07 11:16:00,35.4,28.6,30.33,WNW,294,2.0,10.0,76,0.00,,---,0.04,VWS V14.01,2013-12-07 16:16:00,
2013-12-07 11:21:00,35.4,28.0,30.33,WNW,292,2.0,12.0,74,0.00,,---,0.04,VWS V14.01,2013-12-07 16:21:00,
2013-12-07 11:26:00,35.3,27.5,30.33,NE,39,6.0,12.0,73,0.00,,---,0.04,VWS V14.01,2013-12-07 16:26:00,
2013-12-07 11:31:00,35.3,28.2,30.33,NE,41,6.0,12.0,75,0.00,,---,0.04,VWS V14.01,2013-12-07 16:31:00,
2013-12-07 11:36:00,35.5,27.7,30.33,WNW,295,4.0,9.0,73,0.00,,---,0.04,VWS V14.01,2013-12-07 16:36:00,
2013-12-07 11:41:00,35.7,27.2,30.33,North,6,5.0,10.0,71,0.00,,---,0.04,VWS V14.01,2013-12-07 16:41:00,
2013-12-07 11:46:00,35.9,27.8,30.33,NNW,342,4.0,11.0,72,0.00,,---,0.04,VWS V14.01,2013-12-07 16:46:00,
2013-12-07 11:51:00,36.2,28.1,30.33,NNE,19,3.0,11.0,72,0.00,,---,0.04,VWS V14.01,2013-12-07 16:51:00,
2013-12-07 11:56:00,36.2,28.1,30.34,WSW,252,1.0,11.0,72,0.00,,---,0.04,VWS V14.01,2013-12-07 16:56:00,
2013-12-07 12:01:00,36.4,28.6,30.34,NNE,22,7.0,11.0,73,0.00,,---,0.04,VWS V14.01,2013-12-07 17:01:00,
2013-12-07 12:06:00,36.4,27.2,30.34,NW,321,5.0,9.0,69,0.00,,---,0.04,VWS V14.01,2013-12-07 17:06:00,
2013-12-07 12:11:00,36.4,26.9,30.33,NNE,13,5.0,10.0,68,0.00,,---,0.04,VWS V14.01,2013-12-07 17:11:00,
2013-12-07 12:16:00,36.4,26.9,30.34,NNE,26,10.0,12.0,68,0.00,,---,0.04,VWS V14.01,2013-12-07 17:16:00,
2013-12-07 12:21:00,36.1,25.9,30.33,NW,320,3.0,12.0,66,0.00,,---,0.04,VWS V14.01,2013-12-07 17:21:00,
2013-12-07 12:26:00,35.9,26.0,30.34,WNW,302,6.0,12.0,67,0.00,,---,0.04,VWS V14.01,2013-12-07 17:26:00,
2013-12-07 12:31:00,35.8,25.9,30.33,WNW,297,5.0,12.0,67,0.00,,---,0.04,VWS V14.01,2013-12-07 17:31:00,
2013-12-07 12:36:00,35.9,26.7,30.33,WNW,289,1.0,9.0,69,0.00,,---,0.04,VWS V14.01,2013-12-07 17:36:00,
2013-12-07 12:41:00,35.9,25.3,30.33,NW,315,8.0,11.0,65,0.00,,---,0.04,VWS V14.01,2013-12-07 17:41:00,
2013-12-07 12:46:00,36.0,24.6,30.34,WSW,253,10.0,12.0,63,0.00,,---,0.04,VWS V14.01,2013-12-07 17:46:00,
2013-12-07 12:51:00,36.1,25.1,30.33,North,6,6.0,12.0,64,0.00,,---,0.04,VWS V14.01,2013-12-07 17:51:00,
2013-12-07 12:56:00,36.3,26.4,30.34,NNW,338,5.0,12.0,67,0.00,,---,0.04,VWS V14.01,2013-12-07 17:56:00,
2013-12-07 13:01:00,36.3,25.7,30.34,NNE,23,4.0,12.0,65,0.00,,---,0.04,VWS V14.01,2013-12-07 18:01:00,
2013-12-07 13:06:00,36.3,24.5,30.34,NNE,28,7.0,11.0,62,0.00,,---,0.04,VWS V14.01,2013-12-07 18:06:00,
2013-12-07 13:11:00,36.2,24.5,30.33,NNE,33,7.0,11.0,62,0.00,,---,0.04,VWS V14.01,2013-12-07 18:11:00,
2013-12-07 13:16:00,36.3,24.5,30.33,WSW,256,2.0,12.0,62,0.00,,---,0.04,VWS V14.01,2013-12-07 18:16:00,
2013-12-07 13:21:00,36.7,24.1,30.34,North,10,4.0,12.0,60,0.00,,---,0.04,VWS V14.01,2013-12-07 18:21:00,
2013-12-07 13:26:00,36.9,24.3,30.34,NNE,30,5.0,12.0,60,0.00,,---,0.04,VWS V14.01,2013-12-07 18:26:00,
2013-12-07 13:31:00,36.8,24.2,30.34,WNW,300,3.0,12.0,60,0.00,,---,0.04,VWS V14.01,2013-12-07 18:31:00,
2013-12-07 13:36:00,36.9,23.5,30.34,NW,309,6.0,10.0,58,0.00,,---,0.04,VWS V14.01,2013-12-07 18:36:00,
2013-12-07 13:41:00,36.9,24.3,30.34,NNE,20,3.0,10.0,60,0.00,,---,0.04,VWS V14.01,2013-12-07 18:41:00,
2013-12-07 13:46:00,36.9,22.7,30.34,WNW,297,3.0,11.0,56,0.00,,---,0.04,VWS V14.01,2013-12-07 18:46:00,
2013-12-07 13:51:00,36.8,23.0,30.33,NW,314,4.0,11.0,57,0.00,,---,0.04,VWS V14.01,2013-12-07 18:51:00,
2013-12-07 13:56:00,36.8,23.4,30.34,NNW,329,4.0,12.0,58,0.00,,---,0.04,VWS V14.01,2013-12-07 18:56:00,
2013-12-07 14:01:00,36.7,23.3,30.33,North,352,4.0,12.0,58,0.00,,---,0.04,VWS V14.01,2013-12-07 19:01:00,
2013-12-07 14:06:00,36.5,23.5,30.33,South,174,2.0,7.0,59,0.00,,---,0.04,VWS V14.01,2013-12-07 19:06:00,
2013-12-07 14:11:00,36.5,23.1,30.34,NW,319,3.0,14.0,58,0.00,,---,0.04,VWS V14.01,2013-12-07 19:11:00,
2013-12-07 14:16:00,36.6,23.2,30.34,WNW,285,5.0,14.0,58,0.00,,---,0.04,VWS V14.01,2013-12-07 19:16:00,
2013-12-07 14:21:00,36.7,22.9,30.34,WNW,295,5.0,14.0,57,0.00,,---,0.04,VWS V14.01,2013-12-07 19:21:00,
2013-12-07 14:26:00,36.7,22.5,30.34,North,6,5.0,14.0,56,0.00,,---,0.04,VWS V14.01,2013-12-07 19:26:00,
2013-12-07 14:31:00,36.7,23.3,30.34,West,262,3.0,14.0,58,0.00,,---,0.04,VWS V14.01,2013-12-07 19:31:00,
2013-12-07 14:36:00,36.7,22.1,30.34,WNW,288,7.0,9.0,55,0.00,,---,0.04,VWS V14.01,2013-12-07 19:36:00,
2013-12-07 14:41:00,36.8,23.4,30.34,West,280,4.0,12.0,58,0.00,,---,0.04,VWS V14.01,2013-12-07 19:41:00,
2013-12-07 14:46:00,36.8,23.0,30.34,WNW,292,4.0,12.0,57,0.00,,---,0.04,VWS V14.01,2013-12-07 19:46:00,
2013-12-07 14:50:00,36.9,23.1,30.34,NW,307,4.0,12.0,57,0.00,,---,0.04,VWS V14.01,2013-12-07 19:50:00,
2013-12-07 14:55:00,36.9,23.5,30.34,West,270,4.0,12.0,58,0.00,,---,0.04,VWS V14.01,2013-12-07 19:55:00,
2013-12-07 15:00:00,37.0,22.8,30.35,NE,42,5.0,12.0,56,0.00,,---,0.04,VWS V14.01,2013-12-07 20:00:00,
2013-12-07 15:05:00,37.1,23.3,30.34,NW,321,2.0,5.0,57,0.00,,---,0.04,VWS V14.01,2013-12-07 20:05:00,
2013-12-07 15:10:00,37.0,22.4,30.35,WNW,284,5.0,6.0,55,0.00,,---,0.04,VWS V14.01,2013-12-07 20:10:00,
2013-12-07 15:15:00,37.0,21.9,30.35,NNW,329,1.0,6.0,54,0.00,,---,0.04,VWS V14.01,2013-12-07 20:15:00,
2013-12-07 15:20:00,37.0,21.9,30.35,NW,307,1.0,6.0,54,0.00,,---,0.04,VWS V14.01,2013-12-07 20:20:00,
2013-12-07 15:25:00,36.9,22.3,30.36,NW,304,4.0,6.0,55,0.00,,---,0.04,VWS V14.01,2013-12-07 20:25:00,
2013-12-07 15:30:00,36.8,21.7,30.36,NNW,330,2.0,7.0,54,0.00,,---,0.04,VWS V14.01,2013-12-07 20:30:00,
2013-12-07 15:35:00,36.7,21.6,30.36,NW,316,7.0,8.0,54,0.00,,---,0.04,VWS V14.01,2013-12-07 20:35:00,
2013-12-07 15:40:00,36.7,21.6,30.36,NNE,15,3.0,8.0,54,0.00,,---,0.04,VWS V14.01,2013-12-07 20:40:00,
2013-12-07 15:45:00,36.7,21.2,30.36,NNW,347,0.0,9.0,53,0.00,,---,0.04,VWS V14.01,2013-12-07 20:45:00,
2013-12-07 15:50:00,36.5,21.9,30.37,NW,322,3.0,9.0,55,0.00,,---,0.04,VWS V14.01,2013-12-07 20:50:00,
2013-12-07 15:55:00,36.4,21.4,30.37,WNW,289,1.0,9.0,54,0.00,,---,0.04,VWS V14.01,2013-12-07 20:55:00,
2013-12-07 16:00:00,36.3,21.3,30.37,North,360,3.0,9.0,54,0.00,,---,0.04,VWS V14.01,2013-12-07 21:00:00,
2013-12-07 16:05:00,36.2,21.2,30.37,WNW,291,1.0,4.0,54,0.00,,---,0.04,VWS V14.01,2013-12-07 21:05:00,
2013-12-07 16:10:00,36.1,21.5,30.37,NW,326,0.0,4.0,55,0.00,,---,0.04,VWS V14.01,2013-12-07 21:10:00,
2013-12-07 16:15:00,35.8,22.1,30.37,NE,40,0.0,4.0,57,0.00,,---,0.04,VWS V14.01,2013-12-07 21:15:00,
2013-12-07 16:20:00,35.6,22.3,30.38,WNW,290,1.0,4.0,58,0.00,,---,0.04,VWS V14.01,2013-12-07 21:20:00,
2013-12-07 16:25:00,35.4,22.1,30.38,NNW,347,0.0,4.0,58,0.00,,---,0.04,VWS V14.01,2013-12-07 21:25:00,
2013-12-07 16:30:00,35.1,21.4,30.38,NW,326,1.0,4.0,57,0.00,,---,0.04,VWS V14.01,2013-12-07 21:30:00,
2013-12-07 16:35:00,35.0,22.1,30.38,West,276,1.0,1.0,59,0.00,,---,0.04,VWS V14.01,2013-12-07 21:35:00,
2013-12-07 16:40:00,34.8,22.3,30.38,WNW,291,0.0,1.0,60,0.00,,---,0.04,VWS V14.01,2013-12-07 21:40:00,
2013-12-07 16:45:00,34.6,21.8,30.38,WNW,292,1.0,2.0,59,0.00,,---,0.04,VWS V14.01,2013-12-07 21:45:00,
2013-12-07 16:50:00,34.5,21.7,30.38,NNW,347,0.0,2.0,59,0.00,,---,0.04,VWS V14.01,2013-12-07 21:50:00,
2013-12-07 16:55:00,34.4,21.2,30.39,West,274,1.0,2.0,58,0.00,,---,0.04,VWS V14.01,2013-12-07 21:55:00,
2013-12-07 17:00:00,34.5,21.7,30.39,NW,322,1.0,5.0,59,0.00,,---,0.04,VWS V14.01,2013-12-07 22:00:00,
2013-12-07 17:05:00,34.4,21.6,30.40,West,277,2.0,3.0,59,0.00,,---,0.04,VWS V14.01,2013-12-07 22:05:00,
2013-12-07 17:10:00,34.4,21.2,30.40,North,354,2.0,3.0,58,0.00,,---,0.04,VWS V14.01,2013-12-07 22:10:00,
2013-12-07 17:15:00,34.2,20.6,30.40,NW,304,2.0,3.0,57,0.00,,---,0.04,VWS V14.01,2013-12-07 22:15:00,
2013-12-07 17:20:00,34.3,20.7,30.40,West,270,0.0,3.0,57,0.00,,---,0.04,VWS V14.01,2013-12-07 22:20:00,
2013-12-07 17:25:00,34.2,20.1,30.40,NNE,27,2.0,3.0,56,0.00,,---,0.04,VWS V14.01,2013-12-07 22:25:00,
2013-12-07 17:30:00,34.1,19.6,30.40,NE,56,0.0,3.0,55,0.00,,---,0.04,VWS V14.01,2013-12-07 22:30:00,
2013-12-07 17:35:00,34.0,19.1,30.41,WNW,297,0.0,2.0,54,0.00,,---,0.04,VWS V14.01,2013-12-07 22:35:00,
2013-12-07 17:40:00,33.8,18.9,30.41,NNE,27,0.0,2.0,54,0.00,,---,0.04,VWS V14.01,2013-12-07 22:40:00,
2013-12-07 17:45:00,33.6,20.0,30.41,NNW,338,0.0,3.0,57,0.00,,---,0.04,VWS V14.01,2013-12-07 22:45:00,
2013-12-07 17:50:00,33.5,18.2,30.41,WNW,300,0.0,3.0,53,0.00,,---,0.04,VWS V14.01,2013-12-07 22:50:00,
2013-12-07 17:55:00,33.3,19.3,30.42,North,6,0.0,3.0,56,0.00,,---,0.04,VWS V14.01,2013-12-07 22:55:00,
2013-12-07 18:00:00,33.2,18.4,30.42,NW,326,0.0,3.0,54,0.00,,---,0.04,VWS V14.01,2013-12-07 23:00:00,
2013-12-07 18:05:00,33.0,19.4,30.42,West,280,2.0,2.0,57,0.00,,---,0.04,VWS V14.01,2013-12-07 23:05:00,
2013-12-07 18:10:00,33.1,18.3,30.42,NNE,18,1.0,4.0,54,0.00,,---,0.04,VWS V14.01,2013-12-07 23:10:00,
2013-12-07 18:15:00,33.1,18.3,30.42,NNE,25,1.0,4.0,54,0.00,,---,0.04,VWS V14.01,2013-12-07 23:15:00,
2013-12-07 18:20:00,33.2,17.9,30.42,NE,34,1.0,4.0,53,0.00,,---,0.04,VWS V14.01,2013-12-07 23:20:00,
2013-12-07 18:25:00,33.1,18.7,30.43,WNW,293,1.0,4.0,55,0.00,,---,0.04,VWS V14.01,2013-12-07 23:25:00,
2013-12-07 18:30:00,33.0,17.8,30.43,NW,323,1.0,4.0,53,0.00,,---,0.04,VWS V14.01,2013-12-07 23:30:00,
2013-12-07 18:35:00,33.1,17.8,30.43,NW,305,1.0,3.0,53,0.00,,---,0.04,VWS V14.01,2013-12-07 23:35:00,
2013-12-07 18:40:00,33.1,17.8,30.43,NW,326,0.0,3.0,53,0.00,,---,0.04,VWS V14.01,2013-12-07 23:40:00,
2013-12-07 18:45:00,33.1,18.3,30.44,NE,55,2.0,3.0,54,0.00,,---,0.04,VWS V14.01,2013-12-07 23:45:00,
2013-12-07 18:50:00,33.0,17.8,30.44,ENE,65,0.0,3.0,53,0.00,,---,0.04,VWS V14.01,2013-12-07 23:50:00,
2013-12-07 18:55:00,32.8,18.0,30.45,ENE,65,0.0,3.0,54,0.00,,---,0.04,VWS V14.01,2013-12-07 23:55:00,
2013-12-07 19:00:00,32.8,17.6,30.45,NNE,20,0.0,3.0,53,0.00,,---,0.04,VWS V14.01,2013-12-08 00:00:00,
2013-12-07 19:05:00,32.7,17.9,30.45,West,265,1.0,1.0,54,0.00,,---,0.04,VWS V14.01,2013-12-08 00:05:00,
2013-12-07 19:10:00,32.7,17.9,30.45,NW,307,0.0,2.0,54,0.00,,---,0.04,VWS V14.01,2013-12-08 00:10:00,
2013-12-07 19:15:00,32.5,19.0,30.46,NNW,340,1.0,2.0,57,0.00,,---,0.04,VWS V14.01,2013-12-08 00:15:00,
2013-12-07 19:20:00,32.4,19.3,30.46,NNW,344,1.0,3.0,58,0.00,,---,0.04,VWS V14.01,2013-12-08 00:20:00,
2013-12-07 19:25:00,32.2,18.3,30.46,ESE,108,0.0,3.0,56,0.00,,---,0.04,VWS V14.01,2013-12-08 00:25:00,
2013-12-07 19:30:00,32.1,18.6,30.47,ESE,108,0.0,3.0,57,0.00,,---,0.04,VWS V14.01,2013-12-08 00:30:00,
2013-12-07 19:35:00,31.8,18.3,30.47,NE,55,0.0,1.0,57,0.00,,---,0.04,VWS V14.01,2013-12-08 00:35:00,
2013-12-07 19:40:00,31.8,17.9,30.47,West,277,1.0,3.0,56,0.00,,---,0.04,VWS V14.01,2013-12-08 00:40:00,
2013-12-07 19:45:00,31.8,18.7,30.47,NNW,330,0.0,3.0,58,0.00,,---,0.04,VWS V14.01,2013-12-08 00:45:00,
2013-12-07 19:50:00,31.9,18.4,30.48,North,1,5.0,5.0,57,0.00,,---,0.04,VWS V14.01,2013-12-08 00:50:00,
2013-12-07 19:55:00,32.0,18.1,30.48,NNW,328,1.0,5.0,56,0.00,,---,0.04,VWS V14.01,2013-12-08 00:55:00,
2013-12-07 20:00:00,32.0,18.5,30.48,West,280,3.0,5.0,57,0.00,,---,0.04,VWS V14.01,2013-12-08 01:00:00,
2013-12-07 20:05:00,32.1,17.8,30.48,NNE,28,1.0,3.0,55,0.00,,---,0.04,VWS V14.01,2013-12-08 01:05:00,
2013-12-07 20:10:00,32.0,18.1,30.49,NNE,26,0.0,3.0,56,0.00,,---,0.04,VWS V14.01,2013-12-08 01:10:00,
2013-12-07 20:15:00,31.8,17.9,30.49,SSW,210,0.0,3.0,56,0.00,,---,0.04,VWS V14.01,2013-12-08 01:15:00,
2013-12-07 20:20:00,31.7,18.6,30.49,SW,229,0.0,3.0,58,0.00,,---,0.04,VWS V14.01,2013-12-08 01:20:00,
2013-12-07 20:25:00,31.6,18.1,30.49,NW,321,1.0,3.0,57,0.00,,---,0.04,VWS V14.01,2013-12-08 01:25:00,
2013-12-07 20:30:00,31.6,17.7,30.49,WNW,299,0.0,4.0,56,0.00,,---,0.04,VWS V14.01,2013-12-08 01:30:00,
2013-12-07 20:35:00,31.6,18.1,30.49,WNW,288,1.0,4.0,57,0.00,,---,0.04,VWS V14.01,2013-12-08 01:35:00,
2013-12-07 20:40:00,31.5,18.4,30.49,North,349,3.0,4.0,58,0.00,,---,0.04,VWS V14.01,2013-12-08 01:40:00,
2013-12-07 20:45:00,31.5,18.0,30.49,NNW,347,1.0,4.0,57,0.00,,---,0.04,VWS V14.01,2013-12-08 01:45:00,
2013-12-07 20:50:00,31.5,18.0,30.50,NNE,19,2.0,5.0,57,0.00,,---,0.04,VWS V14.01,2013-12-08 01:50:00,
2013-12-07 20:55:00,31.4,18.7,30.50,NNE,29,2.0,5.0,59,0.00,,---,0.04,VWS V14.01,2013-12-08 01:55:00,
2013-12-07 21:00:00,31.3,18.2,30.49,NNE,27,2.0,6.0,58,0.00,,---,0.04,VWS V14.01,2013-12-08 02:00:00,
2013-12-07 21:05:00,31.3,18.6,30.49,NE,34,3.0,8.0,59,0.00,,---,0.04,VWS V14.01,2013-12-08 02:05:00,
2013-12-07 21:10:00,31.2,18.2,30.50,ENE,67,2.0,8.0,58,0.00,,---,0.04,VWS V14.01,2013-12-08 02:10:00,
2013-12-07 21:15:00,31.1,18.5,30.50,NE,48,1.0,8.0,59,0.00,,---,0.04,VWS V14.01,2013-12-08 02:15:00,
2013-12-07 21:20:00,30.9,18.7,30.50,NE,38,1.0,8.0,60,0.00,,---,0.04,VWS V14.01,2013-12-08 02:20:00,
2013-12-07 21:25:00,30.8,19.0,30.50,East,96,1.0,8.0,61,0.00,,---,0.04,VWS V14.01,2013-12-08 02:25:00,
2013-12-07 21:30:00,30.5,18.7,30.50,NE,40,0.0,8.0,61,0.00,,---,0.04,VWS V14.01,2013-12-08 02:30:00,
2013-12-07 21:35:00,30.2,18.4,30.50,SE,136,1.0,1.0,61,0.00,,---,0.04,VWS V14.01,2013-12-08 02:35:00,
2013-12-07 21:40:00,29.9,18.1,30.51,SE,132,0.0,2.0,61,0.00,,---,0.04,VWS V14.01,2013-12-08 02:40:00,
2013-12-07 21:45:00,29.7,18.7,30.50,SE,141,0.0,2.0,63,0.00,,---,0.04,VWS V14.01,2013-12-08 02:45:00,
2013-12-07 21:50:00,29.6,18.2,30.51,SE,141,0.0,2.0,62,0.00,,---,0.04,VWS V14.01,2013-12-08 02:50:00,
2013-12-07 21:55:00,29.7,18.3,30.51,SE,128,0.0,3.0,62,0.00,,---,0.04,VWS V14.01,2013-12-08 02:55:00,
2013-12-07 22:00:00,29.7,17.9,30.52,ESE,122,0.0,3.0,61,0.00,,---,0.04,VWS V14.01,2013-12-08 03:00:00,
2013-12-07 22:05:00,29.6,19.3,30.52,West,263,0.0,2.0,65,0.00,,---,0.04,VWS V14.01,2013-12-08 03:05:00,
2013-12-07 22:10:00,29.5,17.7,30.52,North,350,1.0,2.0,61,0.00,,---,0.04,VWS V14.01,2013-12-08 03:10:00,
2013-12-07 22:15:00,29.6,18.2,30.52,NNE,25,3.0,3.0,62,0.00,,---,0.04,VWS V14.01,2013-12-08 03:15:00,
2013-12-07 22:20:00,29.6,17.0,30.52,NW,325,1.0,3.0,59,0.00,,---,0.04,VWS V14.01,2013-12-08 03:20:00,
2013-12-07 22:25:00,29.6,17.8,30.53,NW,324,4.0,4.0,61,0.00,,---,0.04,VWS V14.01,2013-12-08 03:25:00,
2013-12-07 22:30:00,29.6,16.6,30.53,NW,308,3.0,5.0,58,0.00,,---,0.04,VWS V14.01,2013-12-08 03:30:00,
2013-12-07 22:35:00,29.7,17.1,30.53,North,354,2.0,7.0,59,0.00,,---,0.04,VWS V14.01,2013-12-08 03:35:00,
2013-12-07 22:40:00,29.6,17.4,30.53,NW,310,0.0,7.0,60,0.00,,---,0.04,VWS V14.01,2013-12-08 03:40:00,
2013-12-07 22:45:00,29.5,17.3,30.54,NE,40,2.0,7.0,60,0.00,,---,0.04,VWS V14.01,2013-12-08 03:45:00,
2013-12-07 22:50:00,29.5,17.3,30.54,NW,317,1.0,7.0,60,0.00,,---,0.04,VWS V14.01,2013-12-08 03:50:00,
2013-12-07 22:55:00,29.5,17.7,30.54,WNW,302,4.0,7.0,61,0.00,,---,0.04,VWS V14.01,2013-12-08 03:55:00,
2013-12-07 23:00:00,29.4,17.2,30.54,West,276,4.0,8.0,60,0.00,,---,0.04,VWS V14.01,2013-12-08 04:00:00,
2013-12-07 23:05:00,29.3,16.8,30.54,West,278,0.0,6.0,59,0.00,,---,0.04,VWS V14.01,2013-12-08 04:05:00,
2013-12-07 23:10:00,29.3,17.5,30.54,NW,321,7.0,7.0,61,0.00,,---,0.04,VWS V14.01,2013-12-08 04:10:00,
2013-12-07 23:15:00,29.2,17.1,30.54,NNW,329,2.0,8.0,60,0.00,,---,0.04,VWS V14.01,2013-12-08 04:15:00,
2013-12-07 23:20:00,29.1,17.0,30.54,NW,325,2.0,8.0,60,0.00,,---,0.04,VWS V14.01,2013-12-08 04:20:00,
2013-12-07 23:25:00,29.0,17.2,30.53,WNW,289,5.0,8.0,61,0.00,,---,0.04,VWS V14.01,2013-12-08 04:25:00,
2013-12-07 23:30:00,28.9,16.4,30.54,NNW,340,1.0,8.0,59,0.00,,---,0.04,VWS V14.01,2013-12-08 04:30:00,
2013-12-07 23:35:00,28.8,17.4,30.53,NW,309,2.0,7.0,62,0.00,,---,0.04,VWS V14.01,2013-12-08 04:35:00,
2013-12-07 23:40:00,28.8,16.3,30.53,North,352,3.0,8.0,59,0.00,,---,0.04,VWS V14.01,2013-12-08 04:40:00,
2013-12-07 23:45:00,28.7,17.3,30.53,NW,316,5.0,8.0,62,0.00,,---,0.04,VWS V14.01,2013-12-08 04:45:00,
2013-12-07 23:50:00,28.6,16.5,30.53,NNW,343,8.0,9.0,60,0.00,,---,0.04,VWS V14.01,2013-12-08 04:50:00,
2013-12-07 23:55:00,28.6,16.5,30.54,NNW,330,2.0,9.0,60,0.00,,---,0.04,VWS V14.01,2013-12-08 04:55:00,